JAM-E JAM 1

Last updated on Mon Sep 07 2026 00:03:03 GMT+0000 (Coordinated Universal Time)

1 67757U 26028B 26249.65021042 .00000139 00000+0 00000+0 0 9994 2 67757 0.1508 351.7564 0000936 235.5679 26.5639 1.00277197 1932
UTC large
Height (km)
Speed (km/s)
/
Latitude / Longitude
Inclination (degrees)
Orbital Period (minutes)
Azimuth
Elevation
Range (km)
Doppler Factor

Next 0 passes for location: London (51.5072 / 0.1276)

No passes found over London.
JAM-E JAM 1